Regional Weather Roundup
Issued by NWS Albany, NY

Home | Current Version | Previous Version | Graphics & Text | Print | Product List | Glossary Off
Versions: 1 2 3 4 5 6 7 8 9 10 11 12 13 14 15 16 17 18 19 20 21 22 23 24 25 26 27 28 29 30 31 32 33 34 35 36 37 38 39 40 41 42 43 44 45 46 47 48 49 50

000
ASUS41 KALY 292210
RWRALY

NEW YORK STATE HOURLY WEATHER ROUNDUP
NATIONAL WEATHER SERVICE ALBANY NY
600 PM EDT TUE JUL 29 2014

NOTE: "FAIR" INDICATES FEW OR NO CLOUDS BELOW 12,000 FEET WITH NO
SIGNIFICANT WEATHER AND/OR NO OBSTRUCTIONS TO VISIBILITY.

NYZ032-033-038>043-046>054-057>066-NYZ062>081-292300-
EAST


CITY           SKY/WX    TMP DP  RH WIND       PRES   REMARKS
ALBANY         PTSUNNY   71  54  54 W6        29.90R
GLENS FALLS    CLOUDY    73  50  44 CALM      29.89R
POUGHKEEPSIE   CLOUDY    73  52  47 NW5       29.90R
NEWBURGH       PTSUNNY   72  52  49 NW7       29.93R
MONTGOMERY     CLOUDY    70  52  52 NW7       29.92R
WHITE PLAINS   MOSUNNY   71  50  47 W7        29.91R
ISLIP          PTSUNNY   77  49  37 NW8       29.89R
NEW YORK CITY  PTSUNNY   75  50  41 NW8       29.90R
CENTRAL PARK   MOSUNNY   74  49  41 VRB5      29.94R
$$

NYZ005>009-017-018-044>046-055-056-292300-
CENTRAL


CITY           SKY/WX    TMP DP  RH WIND       PRES   REMARKS
FULTON         SUNNY     68  50  52 W10       29.94R
SYRACUSE       MOSUNNY   71  49  45 NW9       29.93R
ROME           PTSUNNY   69  50  50 NW10      29.93R
ELMIRA         CLOUDY    68  51  54 NW3       29.96R
BINGHAMTON     CLOUDY    63  51  65 NW3       29.97R
MONTICELLO     CLOUDY    63  52  67 N5        29.98R
$$

NYZ026>034-041>043-292300-
NORTH


CITY           SKY/WX    TMP DP  RH WIND       PRES   REMARKS
WATERTOWN      MOSUNNY   68  52  56 SW9       29.93R
FORT DRUM      NOT AVBL
MASSENA        PTSUNNY   70  51  51 CALM      29.90R
SARANAC LAKE   PTSUNNY   64  46  52 VRB6      29.92R
PLATTSBURGH    MOSUNNY   71  51  49 N8        29.89R
$$

NYZ001>004-010>016-019>021-292300-
WEST


CITY           SKY/WX    TMP DP  RH WIND       PRES   REMARKS
NIAGARA FALLS  PTSUNNY   70  51  51 SW13      29.94S
BUFFALO        PTSUNNY   67  48  50 SW10      29.95S
DUNKIRK        MOSUNNY   65  49  56 W9G23     29.98R
JAMESTOWN      PTSUNNY   61  48  63 NW9       30.00R
WELLSVILLE     CLOUDY    63  49  60 NW5       30.01R
ROCHESTER      PTSUNNY   68  49  50 W5        29.95S
PENN YAN       CLOUDY    66  51  58 W5        29.97R
$$

             KEY
       WCI = WIND CHILL INDEX
       VSB = VISIBILITY
       HX  = HEAT INDEX
$$



USA.gov is the U.S. government's official web portal to all federal, state and local government web resources and services.